Regional Weather Roundup
Issued by NWS

Home | Current Version | Previous Version | Graphics & Text | Print | Product List | Glossary Off
Versions: 1 2 3 4 5 6 7 8 9 10 11 12 13 14 15 16 17 18 19 20 21 22 23 24 25 26 27 28 29 30 31 32 33 34 35 36 37 38 39 40 41 42 43 44 45 46 47 48 49 50

105
ASUS45 KABQ 130410
RWRNM
NEW MEXICO REGIONAL WEATHER ROUNDUP
NATIONAL WEATHER SERVICE ALBUQUERQUE NM
900 PM MST FRI FEB 12 2016

NOTE: "FAIR" MEANS FEW OR NO CLOUDS BELOW 12,000 FEET AGL WITH NO
       SIGNIFICANT WEATHER OR OBSTRUCTIONS TO VISION.

      THIS PRODUCT IS RELEASED AS TWO VERSIONS.  ONE VERSION NEAR
      THE TOP OF THE HOUR CONTAINING PRELIMINARY DATA FROM ALBUQUERQUE
      AND OTHER STATIONS.  A FINAL VERSION WITH ADDITIONAL DATA IS
      ISSUED ABOUT 10 MINUTES AFTER THE HOUR.

NMZ501-503-504-510>518-130500-
NORTHWEST PLATEAU/NORTHCENTRAL MOUNTAINS

CITY           SKY/WX    TMP DP  RH WIND       PRES   REMARKS
FARMINGTON     CLOUDY    34  25  69 N8        30.33R WCI  27
LOS ALAMOS     PTCLDY    49  21  34 SW8       30.39S
SANTA FE       CLOUDY    39  21  48 NW5       30.35R
TAOS           CLOUDY    30  23  74 N5        30.39R WCI  25
ANGEL FIRE     FAIR      28  21  74 CALM      30.44R

$$
NMZ402-403-502-505>509-130500-
WESTCENTRAL MOUNTAINS/SOUTHWEST MOUNTAINS

CITY           SKY/WX    TMP DP  RH WIND       PRES   REMARKS
GALLUP         CLEAR     33  19  56 CALM      30.37R
GRANTS         CLEAR     35  12  38 W5        30.39R WCI  31
SILVER CITY      N/A     41  12  30 N10       30.34R

$$
NMZ407-409-411-412-130500-
SOUTHERN DESERTS

CITY           SKY/WX    TMP DP  RH WIND       PRES   REMARKS
LORDSBURG      FAIR      48  14  25 S9        30.26R
DEMING         PTCLDY    48  11  22 N5        30.27R
LAS CRUCES     CLEAR     48  11  22 SW6       30.29R
HOLLOMAN AFB   CLOUDY    49  10  20 SE5       30.26R
ALAMOGORDO     CLOUDY    48  10  21 SW3       30.28R
T OR C         CLEAR     49   2  14 NW7       30.28R

$$
NMZ519>523-130500-
CENTRAL VALLEYS/CENTRAL HIGHLANDS

CITY           SKY/WX    TMP DP  RH WIND       PRES   REMARKS
ALBUQUERQUE    CLOUDY    49  19  30 CALM      30.31S
DOUBLE EAGLE   CLEAR     39  19  45 W8        30.34S WCI  34
MORIARTY ARPT  FAIR      34  22  61 N3        30.37S
CLINES CORNERS CLOUDY    44  19  36 SE5       30.38S
BELEN          FAIR      47  11  23 CALM      30.31R
SOCORRO        FAIR      47  11  23 W5        30.29R

$$
NMZ524>526-539-540-130500-
SOUTHCENTRAL MOUNTAINS

CITY           SKY/WX    TMP DP  RH WIND       PRES   REMARKS
RUIDOSO          N/A     48  16  27 CALM      30.41S

$$
NMZ527>531-130500-
NORTHEAST HIGHLANDS/NORTHEAST PLAINS

CITY           SKY/WX    TMP DP  RH WIND       PRES   REMARKS
LAS VEGAS      CLOUDY    39  21  48 S7        30.39R WCI  34
RATON          CLOUDY    38  20  48 W6        30.36R WCI  33
CLAYTON        CLOUDY    43  24  47 S10       30.32S

$$
NMZ532>537-130500-
EASTCENTRAL PLAINS

CITY           SKY/WX    TMP DP  RH WIND       PRES   REMARKS
TUCUMCARI      CLEAR     40  24  53 NE6       30.30R
CANNON AFB     CLEAR     44  24  45 SE6       30.32R
CLOVIS AIRPORT CLOUDY    39  23  52 E8        30.34R WCI  34

$$
NMZ028-029-538-130500-
SOUTHEAST PLAINS

CITY           SKY/WX    TMP DP  RH WIND       PRES   REMARKS
ROSWELL        CLOUDY    41  24  51 W7        30.27R
ARTESIA        CLEAR     45  27  49 SW10      30.28R
CARLSBAD       CLEAR     43  26  51 SW7       30.26R
HOBBS          CLEAR     45  27  49 E8        30.32R


$$




USA.gov is the U.S. government's official web portal to all federal, state and local government web resources and services.